Regional Weather Roundup
Issued by NWS

Home | Current Version | Previous Version | Graphics & Text | Print | Product List | Glossary On
Versions: 1 2 3 4 5 6 7 8 9 10 11 12 13 14 15 16 17 18 19 20 21 22 23 24 25 26 27 28 29 30 31 32 33 34 35 36 37 38 39 40 41 42 43 44 45 46 47 48 49 50
000
ASUS45 KSLC 211110
RWRUT

UTAH REGIONAL WEATHER ROUNDUP
NATIONAL WEATHER SERVICE SALT LAKE CITY UT
400 AM MST SUN DEC 21 2014

UTZ001>011-023>025-211200-

NORTHERN UTAH

CITY           SKY/WX    TMP DP  RH WIND       PRES   REMARKS
BRIGHAM CITY   CLOUDY    40  36  84 S10       29.99F WCI  34
HILL AFB       MIX PCPN  37  37 100 S7        29.99F WCI  32
LOGAN          LGT RAIN  40  34  79 S15       29.94S WCI  32
OGDEN          RAIN      40  37  89 S10       29.99F WCI  33
PROVO AIRPORT  CLOUDY    37  34  87 CALM      30.04F
SALT LAKE CITY LGT RAIN  42  34  73 S12       29.99F
VERNAL         CLOUDY    29  27  92 CALM      29.98F
WENDOVER       CLOUDY    36  30  80 SE3       30.00R
HEBER CITY     MIX PCPN  37  30  75 SW9       29.98F WCI  31
WEST JORDAN    CLOUDY    39  36  87 S16       30.00F WCI  30

$$

UTZ012>022-026-027-211200-

SOUTHERN/CENTRAL UTAH

CITY           SKY/WX    TMP DP  RH WIND       PRES   REMARKS
BLANDING       CLEAR     26  26  99 N3        30.15F
BRYCE CANYON   CLOUDY    31  24  75 NW15      30.08F WCI  20
CEDAR CITY     CLOUDY    36  27  69 SE7       30.08F WCI  30
DELTA          CLOUDY    34  30  85 S9        30.05F WCI  27
MILFORD        CLOUDY    35  29  78 SW16      30.05F WCI  25
MOAB/CYNLANDS  CLOUDY    35  33  92 CALM      30.05F
PRICE          CLOUDY    30  26  85 CALM      30.05F
ST GEORGE      CLOUDY    36  28  75 SW5       30.14F WCI  32
KANAB          MOCLDY    28  28 100 N3        30.16F

$$

REGIONAL REPORTS     COLORADO/ARIZONA

CITY           SKY/WX    TMP DP  RH WIND       PRES   REMARKS
CRAIG, CO      CLOUDY    24  22  91 CALM      29.96F
GRAND JUNCTION CLOUDY    31  30  96 NE3       30.05F
RIFLE          CLOUDY    30  27  88 S5        30.02F WCI  25
MONTROSE       CLOUDY    30  27  88 E7        30.07F WCI  23
CORTEZ         CLEAR     24  22  91 NE6       30.08F WCI  17
PAGE, AZ       PTCLDY    34  28  79 SW5       30.11F WCI  30
GRAND CANYON   PTCLDY    23  21  92 CALM      30.15F
KINGMAN        PTCLDY    33  30  88 CALM      30.15F
FLAGSTAFF      PTCLDY    33  21  61 SW7       30.14S WCI  27

$$

REGIONAL REPORTS    NEVADA/IDAHO/WYOMING

CITY           SKY/WX    TMP DP  RH WIND       PRES   REMARKS
LAS VEGAS, NV  PTCLDY    44  36  73 S7        30.10F
ELY            CLOUDY    35  34  96 CALM      30.15R
ELKO           CLOUDY    42  36  79 SW14      30.04F
POCATELLO, ID  CLOUDY    39  37  92 SW17G25   29.84F WCI  30
BURLEY         LGT RAIN  40  36  86 SW14      29.89S WCI  32
EVANSTON, WY   LGT SNOW  31  29  92 SW18      29.93R FOG     WCI  19
ROCK SPRINGS   LGT SNOW  31  27  85 W17       29.87S FOG     WCI  19
KEMMERER       LGT SNOW  32  30  93 SW17      29.88S WCI  21

$$


USA.gov is the U.S. government's official web portal to all federal, state and local government web resources and services.